STARLINK-4551 (53575 NORAD) Tracking and Keplerian Element Data

This shows tracking and keplerian element data for the satellite.

Feedback or suggestion? Click here.




ElementValue
Catalog53575
NameSTARLINK-4551
Epoch Orbit130
Epoch Day324.91667824
Epoch Year2022
RAAN62.3419
Inclination53.2164
Eccentricity0.0001551
Argument of Perigee53.9107
Mean Anonmoly115.7301
Mean Motion15.08852526
Decay Rate-0.00050621
L11 53575U 22101BA 22324.91667824 -.00050621 00000+0 -31839-2 0 9998
L22 53575 53.2164 62.3419 0001551 53.9107 115.7301 15.08852526 1304



Live tracking and technical data element details for STARLINK-4551 (NORAD 53575). STARLINK-4551 can be tracked NOW for your location showing map with azimuth and elevation plus other details from your city location.







IsCatalogInMostPopularTable: catalog: 53575, numindb: 4
Update: records affected: 1



GetName: 53575 STARLINK-4551

Hit Count: updated at: Thu, 08 Dec 2022 19:35:40 GMT